Tracking 29924 objects as of 4-Dec-2024
HD Live streaming from Space Station
objects crossing your sky now

STARLINK-5879

Track STARLINK-5879 now!
10-day predictions
STARLINK-5879 is classified as:


NORAD ID: 57153
Int'l Code: 2023-090BE
Perigee: 565.4 km
Apogee: 567.0 km
Inclination: 43.0 °
Period: 95.8 minutes
Semi major axis: 6937 km
RCS: Unknown
Launch date: June 23, 2023
Source: United States (US)
Launch site: AIR FORCE EASTERN TEST RANGE (AFETR)
Your satellite tracking list
Your tracking list is empty




NASA's NSSDC Master Catalog

Two Line Element Set (TLE):
1 57153U 23090BE  24337.95963661 -.00000018  00000-0  13720-4 0  9996
2 57153  43.0015 237.8245 0001126 259.1814 100.8902 15.02532172 80755
Source of the keplerian elements: AFSPC